Portada
METAR-TAF:

METAR-TAF

Aeroports :

Alton-Saint Louis, Illinois, Estats Units d'Amèrica

latitud: 38-54N, longitud: 090-03W, altitud: 166 m

Observació

L'informe es va fer fa 1 hora i 2 minuts, a les 23:50 UTC
Vent 8 kt del Nord-Oest
Temperatura 24°C
Humitat 34%
Pressió 1014 hPa
Visibilitat: 16.1 km
Cel clar

METAR: KALN 172350Z 31008KT 10SM CLR 24/07 A2993

Hora: 19:52 (00:52 UTC)


TAF: manca

Observacions i pronòstics meteorològics de més de 4000 aeroports (METAR i TAF).

Les estacions disponibles són els punts grocs i vermells al mapa.

Posi el ratolí al punt desitjat per veure el nom de l'estació.

Feu clic per veure les observacions i els pronòstics meteorològics.

Per canviar el mapa: feu clic els botons verds amb una creu de color negre per apropar; al botó verd amb un guió per allunyar la imatge; o en les fletxes verdes per a mapes adjacents.


METAR-TAF: